Regional Weather Roundup
Issued by NWS Little Rock, AR

Home | Current Version | Previous Version | Graphics & Text | Print | Product List | Glossary On
Versions: 1 2 3 4 5 6 7 8 9 10 11 12 13 14 15 16 17 18 19 20 21 22 23 24 25 26 27 28 29 30 31 32 33 34 35 36 37 38 39 40 41 42 43 44 45 46 47 48 49 50
000
ASUS44 KLZK 281305
RWRLZK

WEATHER ROUNDUP FOR ARKANSAS
NATIONAL WEATHER SERVICE LITTLE ROCK AR
700 AM CST SAT FEB 28 2015

NOTE: "FAIR" INDICATES FEW OR NO CLOUDS BELOW 12,000 FEET WITH NO
SIGNIFICANT WEATHER AND/OR OBSTRUCTIONS TO VISIBILITY.

ARZ001-003-010-029-281400-
NORTHWEST ARKANSAS

CITY           SKY/WX    TMP DP  RH WIND       PRES   REMARKS
FAYETTEVILLE   LGT SNOW  19  17  92 E5        30.45F FOG     WCI  12
FORT SMITH     CLOUDY    23  19  85 E10       30.50S FOG     WCI  12
HARRISON       FLURRIES  17  14  88 SE9       30.49R WCI   6
BENTONVILLE    CLOUDY    19  16  86 E9        30.45F WCI   9
ROGERS         LGT SNOW  19  16  88 E7        30.45F FOG     WCI  10
SILOAM SPGS    CLOUDY    19  12  73 E7        30.45F WCI  10
HIGHFILL       LGT SNOW  20  16  84 E8        30.44F FOG     WCI  10
SPRINGDALE     LGT SNOW  19  16  86 E7        30.46F FOG     WCI  10
$$

ARZ004-005-016-281400-
NORTH CENTRAL ARKANSAS

CITY           SKY/WX    TMP DP  RH WIND       PRES   REMARKS
BATESVILLE     CLOUDY    21  18  86 NE5       30.57S WCI  15
FLIPPIN        MOCLDY    19  12  73 E3        30.53S
MTN HOME       LGT SNOW  19  15  84 E8        30.52S FOG     WCI   9
$$

ARZ040-041-281400-
WEST CENTRAL ARKANSAS

CITY           SKY/WX    TMP DP  RH WIND       PRES   REMARKS
MENA           CLOUDY    27  21  80 E8        30.44F WCI  18
MOUNT IDA      CLOUDY    24  18  77 CALM      30.45S
$$

ARZ009-017-025-026-028-281400-
NORTHEAST ARKANSAS

CITY           SKY/WX    TMP DP  RH WIND       PRES   REMARKS
CORNING        LGT SNOW  21  18  86 NE14      30.62S WCI   8
JONESBORO      CLOUDY    22  18  85 NE16      30.58S WCI   8
NEWPORT        CLOUDY    24  20  85 NE14      30.60R WCI  12
WALNUT RIDGE   MOCLDY    21  16  79 NE16      30.60S WCI   7
BLYTHEVILLE    CLOUDY    25  17  72 NE13      30.60S WCI  14
$$

ARZ022-023-033-042-044-281400-
CENTRAL ARKANSAS

CITY           SKY/WX    TMP DP  RH WIND       PRES   REMARKS
LITTLE ROCK    CLOUDY    27  17  66 NE9       30.55R WCI  18
N LITTLE ROCK    N/A     25  20  82 E12       30.55R WCI  14
JACKSONVILLE   CLOUDY    26  17  70 NE12      30.53S WCI  15
SEARCY         FLURRIES  25  18  74 NE10      30.57S WCI  15
HOT SPRINGS    CLOUDY    25  17  72 E8        30.50S WCI  16
RUSSELLVILLE   LGT SNOW  24  18  77 E5        30.53R WCI  18
CLINTON        MIX PCPN  23  18  80 NE3       30.57R
$$

ARZ036-281400-
EAST ARKANSAS

CITY           SKY/WX    TMP DP  RH WIND       PRES   REMARKS
WEST MEMPHIS   CLOUDY    29  17  61 NE10      30.55S WCI  20
$$

ARZ050-053-066-070-073-281400-
SOUTHWEST ARKANSAS

CITY           SKY/WX    TMP DP  RH WIND       PRES   REMARKS
ARKADELPHIA    FAIR      27  20  75 NE8       30.52S WCI  19
CAMDEN         MOCLDY    28  19  69 MISG      30.50F
TEXARKANA      CLOUDY    27  21  78 NE7       30.46R WCI  19
EL DORADO      CLOUDY    28  20  71 NE8       30.48S WCI  20
DE QUEEN       CLOUDY    27  19  72 E9        30.45S WCI  18
$$

ARZ056-057-069-281400-
SOUTHEAST ARKANSAS

CITY           SKY/WX    TMP DP  RH WIND       PRES   REMARKS
PINE BLUFF     CLOUDY    27  20  75 NE10      30.52S WCI  17
STUTTGART      CLOUDY    28  18  64 NE14      30.53F WCI  17
MONTICELLO     CLOUDY    29  21  72 NE12      30.49S WCI  19

$$





USA.gov is the U.S. government's official web portal to all federal, state and local government web resources and services.